[[{"header":{"parameterUnit":"m.s-1","parameterCategory":1,"la1":30.2991,"la2":30.254,"lo1":-89.0895,"lo2":-89.0444,"dy":0.0017,"dx":0.0017,"nx":28,"ny":28,"refTime":"2024-02-25T09:00:00:Z","depth":0,"parameterNumber":2,"parameterNumberName":"U-component_of_WINDS"},"data":[0,0,0,0,0,0,0,0,0,0,0,0,0,0,0,0,0,0,0,0,0,0,0,0,0,0,0,0,0,0,0,0,0,0,0,0,0,0,0,0,0,0,0,0,0,0,0,0,0,0,0,0,0,0,0,0,0,0,-1.2784,-1.2784,0,-1.2738,-1.2738,-1.2737,-1.27,-1.27,-1.2699,-1.2699,-1.2651,-1.265,-1.2649,0,0,0,0,0,0,0,0,0,0,0,0,0,-1.2841,-1.284,-1.2784,-1.2784,-1.2783,-1.2738,-1.2738,-1.2737,-1.27,-1.27,-1.2699,-1.2699,-1.2651,-1.265,-1.2649,0,0,0,0,0,0,0,0,0,0,0,0,0,-1.2808,-1.284,-1.2785,-1.2759,-1.2757,-1.2738,-1.2737,-1.2737,-1.27,-1.27,-1.2699,-1.2699,-1.2651,-1.265,-1.2649,-1.2651,0,0,-1.2644,-1.2644,0,0,0,0,0,0,0,0,-1.281,-1.2806,-1.2764,-1.2761,-1.2758,-1.2724,-1.274,-1.2708,-1.27,-1.2722,-1.2699,-1.2698,-1.2676,-1.2672,-1.2665,-1.2649,-1.2647,-1.2644,-1.2643,-1.2643,-1.2642,0,0,0,0,0,0,0,-1.2812,-1.2808,-1.2766,-1.2763,-1.276,-1.2751,-1.2745,-1.2734,-1.2702,-1.272,-1.2717,-1.2712,-1.2674,-1.2666,-1.2663,-1.2646,-1.2644,-1.2643,-1.2642,-1.2641,-1.263,-1.2631,0,0,0,0,0,0,-1.2818,-1.281,-1.2768,-1.2765,-1.2783,-1.275,-1.2744,-1.2736,-1.2702,-1.2697,-1.2713,-1.271,-1.2669,-1.2665,-1.2661,-1.2662,-1.2643,-1.2641,-1.2641,-1.263,-1.263,-1.2631,0,0,0,0,0,0,-1.282,-1.2815,-1.2769,-1.2786,-1.278,-1.275,-1.2741,-1.2735,-1.2727,-1.2697,-1.2691,-1.271,-1.2668,-1.2663,-1.2654,-1.266,-1.2641,-1.2639,-1.2629,-1.263,-1.2631,-1.2663,0,0,0,0,0,0,-1.2822,-1.2816,-1.2816,-1.2787,-1.2779,-1.2763,-1.2741,-1.2735,-1.2725,-1.2722,-1.2693,-1.2688,-1.2667,-1.2656,-1.2653,-1.2657,-1.2638,-1.2628,-1.2629,-1.263,-1.2661,-1.2665,-1.2668,0,0,0,0,0,-1.2824,-1.2827,-1.2816,-1.2811,-1.2779,-1.2763,-1.2759,-1.2735,-1.2726,-1.2726,-1.2706,-1.2689,-1.266,-1.2656,-1.2651,-1.2656,-1.2628,-1.2629,-1.263,-1.266,-1.2664,-1.2668,0,0,0,0,0,0,-1.2857,-1.2822,-1.281,-1.2804,-1.2787,-1.2757,-1.2756,-1.2741,-1.2726,-1.2723,-1.2695,-1.2689,-1.2682,-1.2668,-1.2664,-1.2656,-1.2642,-1.2642,-1.2666,-1.2669,-1.2673,-1.2676,-1.2637,0,0,0,0,0,-1.2864,-1.2854,-1.2824,-1.2822,-1.2814,-1.2787,-1.2779,-1.2763,-1.2743,-1.2736,-1.2716,-1.2698,-1.2685,-1.2676,-1.2663,-1.266,-1.2653,-1.2661,-1.2664,-1.2667,-1.2667,-1.2664,-1.2667,-1.2635,-1.2635,-1.2635,0,0,-1.2878,-1.2857,-1.2853,-1.2828,-1.2813,-1.2803,-1.2781,-1.2771,-1.2764,-1.2734,-1.2724,-1.2709,-1.2687,-1.2681,-1.2677,-1.2669,-1.2675,-1.2668,-1.2671,-1.2669,-1.2666,-1.2669,-1.2672,-1.2636,-1.2635,-1.2635,0,0,-1.2897,-1.2881,-1.2877,-1.2863,-1.284,-1.2822,-1.2822,-1.2794,-1.2783,-1.2773,-1.2751,-1.2741,-1.2719,-1.2705,-1.2694,-1.271,-1.2693,-1.2707,-1.2723,-1.2721,-1.2724,-1.2726,-1.2731,-1.2733,-1.2707,-1.2707,-1.2708,0,-1.2917,-1.2901,-1.2877,-1.2869,-1.2859,-1.2833,-1.2829,-1.2816,-1.279,-1.2783,-1.2775,-1.2747,-1.273,-1.272,-1.2724,-1.2717,-1.2715,-1.2709,-1.2726,-1.2727,-1.2729,-1.2734,-1.2736,-1.2709,-1.2709,-1.2709,-1.2709,0,-1.2926,-1.2916,-1.2916,-1.2892,-1.2881,-1.2876,-1.2851,-1.2844,-1.2829,-1.2812,-1.2802,-1.2781,-1.2763,-1.276,-1.2745,-1.2748,-1.2744,-1.2731,-1.2715,-1.2734,-1.2738,-1.274,-1.2712,-1.2711,-1.271,-1.271,0,0,-1.2964,-1.2928,-1.2928,-1.2917,-1.2891,-1.2882,-1.2876,-1.2858,-1.2852,-1.2836,-1.2829,-1.2812,-1.28,-1.2789,-1.2772,-1.277,-1.2784,-1.2758,-1.2757,-1.2763,-1.2786,-1.2795,-1.2798,-1.2773,-1.2774,-1.2774,-1.2788,0,-1.2979,-1.2965,-1.2944,-1.2937,-1.2927,-1.2903,-1.2897,-1.288,-1.2865,-1.2855,-1.2838,-1.2826,-1.2811,-1.2804,-1.2801,-1.2783,-1.2788,-1.2782,-1.2767,-1.2766,-1.2772,-1.28,-1.2809,-1.2823,-1.2789,-1.2789,-1.279,0,-1.2994,-1.2979,-1.2971,-1.2947,-1.2942,-1.2937,-1.2919,-1.291,-1.2891,-1.288,-1.2868,-1.285,-1.2842,-1.2829,-1.2817,-1.2813,-1.2806,-1.2796,-1.2796,-1.2793,-1.2778,-1.2796,-1.2827,-1.2829,-1.2792,-1.2792,-1.2791,0,-1.3022,-1.3,-1.2993,-1.2984,-1.2955,-1.2952,-1.294,-1.292,-1.2911,-1.2897,-1.289,-1.2875,-1.2866,-1.2855,-1.2833,-1.2826,-1.2824,-1.2809,-1.2814,-1.2815,-1.2814,-1.2814,-1.2843,-1.2811,-1.2811,-1.2811,-1.2811,0,-1.304,-1.3036,-1.3005,-1.3,-1.2995,-1.2971,-1.2967,-1.2952,-1.2936,-1.2928,-1.2906,-1.2899,-1.2872,-1.2862,-1.2846,-1.2838,-1.2835,-1.2825,-1.2821,-1.2827,-1.2828,-1.2821,-1.2819,-1.2811,-1.2811,-1.2811,-1.2811,0,-1.307,-1.3049,-1.3039,-1.3012,-1.3006,-1.3003,-1.2981,-1.2975,-1.2959,-1.295,-1.2946,-1.2921,-1.2908,-1.2886,-1.2867,-1.2856,-1.2852,-1.2845,-1.2858,-1.2855,-1.2861,-1.2861,-1.2886,-1.2888,-1.2856,-1.2856,-1.2856,0,-1.3082,-1.3079,-1.3052,-1.3045,-1.3034,-1.3024,-1.3015,-1.2991,-1.2983,-1.2962,-1.2959,-1.2945,-1.2932,-1.2913,-1.2893,-1.2878,-1.287,-1.288,-1.2867,-1.2874,-1.2869,-1.2869,-1.2869,-1.2882,-1.2883,-1.2883,-1.2883,0,-1.3107,-1.3097,-1.3084,-1.3069,-1.3059,-1.3046,-1.3031,-1.3027,-1.3001,-1.2992,-1.2979,-1.2969,-1.295,-1.2936,-1.2919,-1.2906,-1.2891,-1.2888,-1.2888,-1.2893,-1.2901,-1.2896,-1.2865,-1.2887,-1.2886,-1.2886,-1.2886,-1.2886,-1.3127,-1.3123,-1.3104,-1.3091,-1.3078,-1.3065,-1.3059,-1.3043,-1.3031,-1.3014,-1.3001,-1.2989,-1.2971,-1.2946,-1.2935,-1.2925,-1.2918,-1.2918,-1.2918,-1.2919,-1.2921,-1.2904,-1.2922,-1.2922,-1.2922,-1.2922,-1.2922,0,-1.315,-1.3137,-1.3126,-1.3106,-1.3096,-1.3083,-1.3067,-1.3059,-1.3049,-1.3033,-1.3022,-1.3007,-1.2993,-1.2973,-1.2958,-1.2954,-1.2947,-1.2951,-1.295,-1.2948,-1.2928,-1.2929,-1.2957,-1.2957,-1.2957,-1.2957,-1.2957,-1.2957,-1.3161,-1.3153,-1.3141,-1.3126,-1.3113,-1.3101,-1.3093,-1.3081,-1.3068,-1.3053,-1.3042,-1.3029,-1.3011,-1.2995,-1.2982,-1.2977,-1.2972,-1.2979,-1.2971,-1.2953,-1.2949,-1.2946,-1.2947,-1.2978,-1.2978,-1.2991,-1.2991,-1.2991]},{"header":{"parameterUnit":"m.s-1","parameterCategory":1,"la1":30.2991,"la2":30.254,"lo1":-89.0895,"lo2":-89.0444,"dy":0.0017,"dx":0.0017,"nx":28,"ny":28,"refTime":"2024-02-25T09:00:00:Z","depth":0,"parameterNumber":3,"parameterNumberName":"V-component_of_WINDS"},"data":[0,0,0,0,0,0,0,0,0,0,0,0,0,0,0,0,0,0,0,0,0,0,0,0,0,0,0,0,0,0,0,0,0,0,0,0,0,0,0,0,0,0,0,0,0,0,0,0,0,0,0,0,0,0,0,0,0,0,2.9764,2.9764,0,2.9776,2.9776,2.9777,2.9773,2.9773,2.9773,2.9772,2.9784,2.9784,2.9785,0,0,0,0,0,0,0,0,0,0,0,0,0,2.9737,2.9737,2.9764,2.9764,2.9764,2.9776,2.9776,2.9777,2.9773,2.9773,2.9773,2.9772,2.9784,2.9784,2.9785,0,0,0,0,0,0,0,0,0,0,0,0,0,2.9749,2.9737,2.9764,2.9764,2.9764,2.9776,2.9776,2.9777,2.9773,2.9773,2.9773,2.9772,2.9783,2.9784,2.9785,2.9797,0,0,2.9787,2.9788,0,0,0,0,0,0,0,0,2.9748,2.975,2.9764,2.9764,2.9764,2.9773,2.9771,2.9784,2.9773,2.977,2.9772,2.9772,2.978,2.9781,2.9784,2.9798,2.9798,2.9787,2.9788,2.9788,2.9788,0,0,0,0,0,0,0,2.9747,2.9749,2.9769,2.9764,2.9764,2.9763,2.9765,2.9773,2.9777,2.977,2.977,2.9771,2.978,2.9784,2.9785,2.9798,2.9787,2.9788,2.9789,2.9789,2.9824,2.9824,0,0,0,0,0,0,2.9746,2.9748,2.9768,2.9769,2.9755,2.9764,2.9765,2.977,2.9777,2.9777,2.9772,2.9771,2.9783,2.9784,2.9785,2.9801,2.9788,2.9789,2.9789,2.9823,2.9824,2.9824,0,0,0,0,0,0,2.9746,2.9748,2.9768,2.9759,2.9761,2.9765,2.977,2.9771,2.9774,2.9778,2.9779,2.9775,2.9782,2.9784,2.9795,2.9801,2.9789,2.979,2.9823,2.9823,2.9824,2.9832,0,0,0,0,0,0,2.9745,2.9748,2.9753,2.9759,2.9762,2.9777,2.9771,2.9771,2.9776,2.9775,2.9781,2.9781,2.9782,2.9793,2.9795,2.9802,2.9791,2.9822,2.9823,2.9824,2.9831,2.9833,2.9834,0,0,0,0,0,2.9744,2.9754,2.9753,2.9755,2.9768,2.9778,2.9779,2.978,2.9776,2.9781,2.9784,2.9781,2.98,2.9795,2.9797,2.9804,2.9822,2.9823,2.9824,2.983,2.9832,2.9834,0,0,0,0,0,0,2.9747,2.9754,2.9754,2.9766,2.9771,2.9777,2.9783,2.9782,2.9788,2.9788,2.9788,2.9789,2.9801,2.9803,2.9797,2.9817,2.981,2.9812,2.9815,2.9817,2.9818,2.9817,2.9791,0,0,0,0,0,2.9749,2.9757,2.9763,2.9773,2.9776,2.9779,2.9784,2.9784,2.979,2.9792,2.9795,2.98,2.9807,2.9812,2.9819,2.9831,2.9833,2.9837,2.9839,2.984,2.9841,2.9849,2.9852,2.9828,2.9828,2.9828,0,0,2.9754,2.9759,2.9764,2.9774,2.9778,2.9787,2.9781,2.979,2.9796,2.9793,2.9804,2.9806,2.9812,2.9824,2.983,2.9827,2.9849,2.9841,2.9842,2.9843,2.9851,2.9853,2.9855,2.9828,2.9828,2.9828,0,0,2.9766,2.9771,2.978,2.9785,2.9792,2.9794,2.9797,2.9803,2.9805,2.9816,2.9814,2.9821,2.9833,2.9838,2.9842,2.9858,2.9856,2.986,2.9868,2.9876,2.9878,2.9879,2.9886,2.9888,2.9861,2.9861,2.9861,0,2.9771,2.9783,2.9785,2.9794,2.9799,2.9798,2.9808,2.9812,2.9821,2.9824,2.9821,2.9837,2.984,2.9854,2.9858,2.9861,2.9864,2.9859,2.9877,2.9879,2.9881,2.9887,2.9889,2.9862,2.9862,2.9862,2.9862,0,2.9789,2.9798,2.9805,2.9814,2.982,2.9829,2.9832,2.9838,2.9838,2.9841,2.9852,2.9857,2.9865,2.9868,2.9868,2.9882,2.9881,2.9877,2.9871,2.9883,2.9889,2.9892,2.9862,2.9862,2.9862,2.9862,0,0,2.9803,2.9815,2.9817,2.9822,2.983,2.9837,2.9847,2.9856,2.9861,2.9867,2.9875,2.9886,2.9884,2.9888,2.9888,2.9895,2.9909,2.9891,2.9891,2.9895,2.9926,2.9928,2.9931,2.9907,2.9908,2.9908,2.9925,0,2.9817,2.9835,2.9837,2.9853,2.9861,2.9861,2.9869,2.9875,2.9878,2.9886,2.9889,2.9897,2.9893,2.9896,2.9902,2.9906,2.9915,2.9904,2.9915,2.9916,2.9915,2.9934,2.9937,2.9953,2.9928,2.9928,2.9928,0,2.9835,2.9843,2.986,2.9869,2.9872,2.988,2.9889,2.9896,2.9903,2.9905,2.9911,2.9911,2.9921,2.9914,2.9928,2.9921,2.9926,2.9928,2.9929,2.993,2.9923,2.9937,2.9958,2.996,2.9932,2.9931,2.9931,0,2.9845,2.986,2.9872,2.9876,2.9886,2.9892,2.9896,2.9903,2.9908,2.9916,2.992,2.9928,2.9933,2.9939,2.9942,2.9937,2.9956,2.995,2.9958,2.9958,2.9963,2.9962,2.9986,2.9965,2.9965,2.9965,2.9965,0,2.986,2.9871,2.9877,2.9884,2.9896,2.9899,2.9911,2.9915,2.9921,2.993,2.9929,2.9937,2.9939,2.9948,2.9949,2.9962,2.9963,2.9965,2.9966,2.9966,2.9966,2.9969,2.9968,2.9965,2.9965,2.9965,2.9965,0,2.9873,2.9877,2.9891,2.99,2.9902,2.9911,2.9918,2.9926,2.9929,2.994,2.9943,2.9948,2.9958,2.9961,2.9972,2.9973,2.9988,2.9987,2.9986,2.9986,2.9995,2.9994,3.0022,3.0026,3.0001,3.0002,3.0002,0,2.9883,2.9891,2.9901,2.9907,2.9912,2.9922,2.9928,2.9931,2.9938,2.9947,2.9954,2.9964,2.9972,2.9988,2.9992,3.0001,3.0001,3.001,3.0002,3.0003,3.0002,3.0002,3.0003,3.0012,3.0012,3.0012,3.0012,0,2.99,2.9902,2.9911,2.9922,2.993,2.9938,2.9945,2.995,2.9955,2.9962,2.9973,2.9979,2.9992,3.0002,3.0012,3.0016,3.0015,3.0015,3.0017,3.0018,3.0017,3.0018,2.9991,3.0014,3.0014,3.0014,3.0014,3.0013,2.9912,2.992,2.9929,2.9939,2.9946,2.9954,2.9962,2.9967,2.9976,2.9987,2.9988,3.0,3.0008,3.0021,3.0025,3.0035,3.0032,3.0036,3.0037,3.0038,3.0039,3.0015,3.0036,3.0036,3.0036,3.0036,3.0036,0,2.993,2.9936,2.9946,2.9957,2.9966,2.9965,2.9974,2.9982,2.9992,3.0,3.0009,3.0021,3.0032,3.0037,3.0048,3.0054,3.0054,3.0057,3.0056,3.0058,3.004,3.0037,3.0057,3.0057,3.0057,3.0057,3.0057,3.0057,2.994,2.9954,2.9957,2.9975,2.9981,2.9993,2.9998,3.0006,3.0012,3.0027,3.0036,3.004,3.0047,3.0058,3.0067,3.0069,3.0073,3.0076,3.0077,3.0061,3.0059,3.0057,3.0054,3.0077,3.0077,3.0094,3.0094,3.0094]}]]